Location: Althorst
(53.6379°N, 10.7715°E)
Time: 19:39:45
(UTC+00:00)

ATLAS 2AS CENTAUR R/B - Pass Details

Date: 10 December 2019
Orbit: 927 x 1285 km, 63.7° (Epoch: 19 January)

Event Time Altitude Azimuth Distance (km) Brightness Sun altitude
Rises 16:47:24 0° 246° (WSW) 4,236 7.7 -15.1°
Reaches altitude 10° 16:50:16 10° 250° (WSW) 3,282 6.6 -15.5°
Maximum altitude 16:58:13 60° 330° (NNW) 1,447 3.4 -16.6°
Enters shadow 17:04:00 20° 45° (NE) 2,582 4.2 -17.5°
